Skip Page Navigation
NASA JPL Caltech
NASA Logo - Jet Propulsion Laboratory + View the NASA Portal
+ Near-Earth Object (NEO) Program
Search JPL
JPL Home Earth Solar System Stars & Galaxies Technology
JPL Solar System Dynamics
BODIES ORBITS EPHEMERIDES TOOLS PHYSICAL DATA DISCOVERY FAQ SITE MAP
JPL Small-Body Database Browser
Search: [ help ]  
23187 (2000 PN9)
Classification: Apollo [NEO, PHA]          SPK-ID: 2023187
Ephemeris | Orbit Diagram | Orbital Elements | Physical Parameters | Discovery Circumstances | Close-Approach Data ]

[ hide orbit diagram ]
Orbit Diagram
Note: Make sure you have Java enabled on your browser to see the applet. This applet is provided as a 3D orbit visualization tool. The applet was implemented using 2-body methods, and hence should not be used for determining accurate long-term trajectories (over several years or decades) or planetary encounter circumstances. For accurate long-term ephemerides, please instead use our Horizons system.
Orbit Viewer

Additional Notes: the orbits shown in the applet are color coded. The planets are white lines, and the asteroid/comet is a blue line. The bright white line indicates the portion of the orbit that is above the ecliptic plane, and the darker portion is below the ecliptic plane. Likewise for the asteroid/comet orbit, the light blue indicates the portion above the ecliptic plane, and the dark blue the portion below the ecliptic plane.

Orbit Viewer applet originally written and kindly provided by Osamu Ajiki (AstroArts), and further modified by Ron Baalke (JPL).


Orbital Elements at Epoch 2456400.5 (2013-Apr-18.0) TDB
Reference: JPL 176 (heliocentric ecliptic J2000)
 Element Value Uncertainty (1-sigma)   Units 
e .5896815179412 2.044e-08  
a 1.84662715556863 1.5535e-09 AU
q .7577052514014796 3.7964e-08 AU
i 51.31173705722026 1.5205e-05 deg
node 164.376755339449 9.6226e-07 deg
peri 293.5294744552735 5.3285e-06 deg
M 318.0551582398483 1.4561e-06 deg
tp 2456507.293129428935
(2013-Aug-02.79312943)
3.8027e-06 JED
period 916.5734088175916
2.51
1.1566e-06
3.167e-09
d
yr
n .3927672312296418 4.9564e-10 deg/d
Q 2.93554905973578 2.4696e-09 AU
  Orbit Determination Parameters
   # obs. used (total)      968  
   # delay obs. used      6  
   # Doppler obs. used      2  
   data-arc span      7601 days (20.81 yr)  
   first obs. used      1990-08-02  
   last obs. used      2011-05-25  
   planetary ephem.      DE405  
   SB-pert. ephem.      SB405-CPV-2  
   condition code      0  
   fit RMS      .41835  
   data source      ORB  
   producer      Otto Matic  
   solution date      2013-Apr-29 15:37:58  

Additional Information
 Earth MOID = .0150171 AU 
 T_jup = 3.419 
[ show covariance matrix ]

Ephemeris | Orbit Diagram | Orbital Elements | Physical Parameters | Discovery Circumstances | Close-Approach Data ]

Physical Parameter Table
Parameter Symbol Value Units Sigma Reference Notes
absolute magnitude H 16.1 mag n/a PDS3 (MPO 10236)  
rotation period rot_per 2.5325 h n/a Asteroid Lightcurve DataBase (Rev. 2013-May-01) Incomplete or inconclusive result.
Published Reference List:
[Pravec, P.; Wolf, M.; Sarounova, L. (2001) http://www.asu.cas.cz/~ppravec/neo.htm]
[Belskaya, I.N.; Fornasier, S.; Krugly, Y.U. (2009) Icarus 201, 167-171.]

23187 (2000 PN9)          Discovered 2000-Aug-08 by LINEAR at Socorro (704)
Reference: 20010309/Numbers.arcLast Updated: 2004-04-19

[ show close-approach data ]
Ephemeris | Orbit Diagram | Orbital Elements | Physical Parameters | Discovery Circumstances | Close-Approach Data ]
ABOUT SSD CREDITS/AWARDS PRIVACY/COPYRIGHT GLOSSARY LINKS
FirstGov 2013-May-24 16:38 UT
(server date/time)  
NASA Home Page
Site Manager:   Donald K. Yeomans
Webmaster  Alan B. Chamberlin